﻿測定場所 (Monitoring sites),日付 (Measurement date),時間 (Measurement time),線量率 最大値 (max) μGy/h,線量率 最小値 (min) μGy/h,線量率 平均値 (average) μGy/h,
大田 (Ota),2012-05-20,23:01～24:00,0.0611,0.0538,0.0573,
大田 (Ota),2012-05-20,22:01～23:00,0.0614,0.0538,0.0576,
大田 (Ota),2012-05-20,21:01～22:00,0.0613,0.0529,0.0575,
大田 (Ota),2012-05-20,20:01～21:00,0.0618,0.0540,0.0570,
大田 (Ota),2012-05-20,19:01～20:00,0.0627,0.0547,0.0575,
大田 (Ota),2012-05-20,18:01～19:00,0.0608,0.0548,0.0575,
大田 (Ota),2012-05-20,17:01～18:00,0.0608,0.0532,0.0574,
大田 (Ota),2012-05-20,16:01～17:00,0.0599,0.0549,0.0577,
大田 (Ota),2012-05-20,15:01～16:00,0.0621,0.0540,0.0576,
大田 (Ota),2012-05-20,14:01～15:00,0.0620,0.0541,0.0576,
大田 (Ota),2012-05-20,13:01～14:00,0.0608,0.0537,0.0574,
大田 (Ota),2012-05-20,12:01～13:00,0.0605,0.0534,0.0577,
大田 (Ota),2012-05-20,11:01～12:00,0.0600,0.0528,0.0573,
大田 (Ota),2012-05-20,10:01～11:00,0.0606,0.0543,0.0576,
大田 (Ota),2012-05-20,09:01～10:00,0.0609,0.0530,0.0577,
大田 (Ota),2012-05-20,08:01～09:00,0.0612,0.0555,0.0585,
大田 (Ota),2012-05-20,07:01～08:00,0.0613,0.0537,0.0580,
大田 (Ota),2012-05-20,06:01～07:00,0.0607,0.0539,0.0571,
大田 (Ota),2012-05-20,05:01～06:00,0.0597,0.0542,0.0573,
大田 (Ota),2012-05-20,04:01～05:00,0.0607,0.0540,0.0571,
大田 (Ota),2012-05-20,03:01～04:00,0.0609,0.0540,0.0572,
大田 (Ota),2012-05-20,02:01～03:00,0.0610,0.0534,0.0574,
大田 (Ota),2012-05-20,01:01～02:00,0.0603,0.0524,0.0573,
大田 (Ota),2012-05-20,00:01～01:00,0.0613,0.0531,0.0569,
大田 (Ota),2012-05-19,23:01～24:00,0.0619,0.0542,0.0570,
大田 (Ota),2012-05-19,22:01～23:00,0.0609,0.0539,0.0572,
大田 (Ota),2012-05-19,21:01～22:00,0.0606,0.0524,0.0571,
大田 (Ota),2012-05-19,20:01～21:00,0.0600,0.0536,0.0573,
大田 (Ota),2012-05-19,19:01～20:00,0.0616,0.0542,0.0574,
大田 (Ota),2012-05-19,18:01～19:00,0.0620,0.0535,0.0574,
大田 (Ota),2012-05-19,17:01～18:00,0.0610,0.0526,0.0573,
大田 (Ota),2012-05-19,16:01～17:00,0.0611,0.0531,0.0572,
大田 (Ota),2012-05-19,15:01～16:00,0.0611,0.0530,0.0570,
大田 (Ota),2012-05-19,14:01～15:00,0.0607,0.0542,0.0574,
大田 (Ota),2012-05-19,13:01～14:00,0.0609,0.0539,0.0573,
大田 (Ota),2012-05-19,12:01～13:00,0.0603,0.0541,0.0571,
大田 (Ota),2012-05-19,11:01～12:00,0.0612,0.0541,0.0570,
大田 (Ota),2012-05-19,10:01～11:00,0.0605,0.0532,0.0569,
大田 (Ota),2012-05-19,09:01～10:00,0.0614,0.0531,0.0574,
大田 (Ota),2012-05-19,08:01～09:00,0.0605,0.0537,0.0573,
大田 (Ota),2012-05-19,07:01～08:00,0.0606,0.0531,0.0576,
大田 (Ota),2012-05-19,06:01～07:00,0.0608,0.0533,0.0572,
大田 (Ota),2012-05-19,05:01～06:00,0.0612,0.0534,0.0573,
大田 (Ota),2012-05-19,04:01～05:00,0.0614,0.0540,0.0576,
大田 (Ota),2012-05-19,03:01～04:00,0.0611,0.0525,0.0566,
大田 (Ota),2012-05-19,02:01～03:00,0.0598,0.0537,0.0568,
大田 (Ota),2012-05-19,01:01～02:00,0.0609,0.0539,0.0570,
大田 (Ota),2012-05-19,00:01～01:00,0.0591,0.0535,0.0568,
大田 (Ota),2012-05-18,23:01～24:00,0.0598,0.0539,0.0571,
大田 (Ota),2012-05-18,22:01～23:00,0.0589,0.0530,0.0563,
大田 (Ota),2012-05-18,21:01～22:00,0.0594,0.0524,0.0565,
大田 (Ota),2012-05-18,20:01～21:00,0.0599,0.0526,0.0562,
大田 (Ota),2012-05-18,19:01～20:00,0.0606,0.0518,0.0567,
大田 (Ota),2012-05-18,18:01～19:00,0.0598,0.0537,0.0567,
大田 (Ota),2012-05-18,17:01～18:00,0.0598,0.0529,0.0564,
大田 (Ota),2012-05-18,16:01～17:00,0.0610,0.0533,0.0568,
大田 (Ota),2012-05-18,15:01～16:00,0.0629,0.0552,0.0581,
大田 (Ota),2012-05-18,14:01～15:00,0.0687,0.0564,0.0609,
大田 (Ota),2012-05-18,13:01～14:00,0.0740,0.0620,0.0685,
大田 (Ota),2012-05-18,12:01～13:00,0.0721,0.0551,0.0602,
大田 (Ota),2012-05-18,11:01～12:00,0.0610,0.0535,0.0570,
大田 (Ota),2012-05-18,10:01～11:00,0.0602,0.0522,0.0575,
大田 (Ota),2012-05-18,09:01～10:00,0.0601,0.0498,0.0555,
大田 (Ota),2012-05-18,08:01～09:00,0.0606,0.0508,0.0571,
大田 (Ota),2012-05-18,07:01～08:00,0.0634,0.0561,0.0595,
大田 (Ota),2012-05-18,06:01～07:00,0.0680,0.0585,0.0627,
大田 (Ota),2012-05-18,05:01～06:00,0.0646,0.0545,0.0594,
大田 (Ota),2012-05-18,04:01～05:00,0.0617,0.0555,0.0579,
大田 (Ota),2012-05-18,03:01～04:00,0.0651,0.0570,0.0611,
大田 (Ota),2012-05-18,02:01～03:00,0.0699,0.0630,0.0661,
大田 (Ota),2012-05-18,01:01～02:00,0.0673,0.0547,0.0594,
大田 (Ota),2012-05-18,00:01～01:00,0.0616,0.0549,0.0580,
大田 (Ota),2012-05-17,23:01～24:00,0.0615,0.0540,0.0573,
大田 (Ota),2012-05-17,22:01～23:00,0.0613,0.0539,0.0574,
大田 (Ota),2012-05-17,21:01～22:00,0.0622,0.0540,0.0578,
大田 (Ota),2012-05-17,20:01～21:00,0.0616,0.0551,0.0580,
大田 (Ota),2012-05-17,19:01～20:00,0.0627,0.0531,0.0578,
大田 (Ota),2012-05-17,18:01～19:00,0.0609,0.0538,0.0576,
大田 (Ota),2012-05-17,17:01～18:00,0.0611,0.0546,0.0578,
大田 (Ota),2012-05-17,16:01～17:00,0.0617,0.0537,0.0576,
大田 (Ota),2012-05-17,15:01～16:00,0.0612,0.0541,0.0580,
大田 (Ota),2012-05-17,14:01～15:00,0.0623,0.0539,0.0580,
大田 (Ota),2012-05-17,13:01～14:00,0.0621,0.0553,0.0581,
大田 (Ota),2012-05-17,12:01～13:00,0.0633,0.0542,0.0583,
大田 (Ota),2012-05-17,11:01～12:00,0.0616,0.0545,0.0581,
大田 (Ota),2012-05-17,10:01～11:00,0.0600,0.0549,0.0579,
大田 (Ota),2012-05-17,09:01～10:00,0.0616,0.0537,0.0579,
大田 (Ota),2012-05-17,08:01～09:00,0.0624,0.0557,0.0587,
大田 (Ota),2012-05-17,07:01～08:00,0.0625,0.0550,0.0583,
大田 (Ota),2012-05-17,06:01～07:00,0.0620,0.0542,0.0582,
大田 (Ota),2012-05-17,05:01～06:00,0.0611,0.0543,0.0576,
大田 (Ota),2012-05-17,04:01～05:00,0.0601,0.0522,0.0571,
大田 (Ota),2012-05-17,03:01～04:00,0.0606,0.0534,0.0576,
大田 (Ota),2012-05-17,02:01～03:00,0.0600,0.0547,0.0574,
大田 (Ota),2012-05-17,01:01～02:00,0.0621,0.0550,0.0579,
大田 (Ota),2012-05-17,00:01～01:00,0.0600,0.0534,0.0575,
大田 (Ota),2012-05-16,23:01～24:00,0.0615,0.0544,0.0574,
大田 (Ota),2012-05-16,22:01～23:00,0.0607,0.0538,0.0578,
大田 (Ota),2012-05-16,21:01～22:00,0.0606,0.0546,0.0575,
大田 (Ota),2012-05-16,20:01～21:00,0.0610,0.0533,0.0572,
大田 (Ota),2012-05-16,19:01～20:00,0.0601,0.0536,0.0576,
大田 (Ota),2012-05-16,18:01～19:00,0.0627,0.0543,0.0575,
大田 (Ota),2012-05-16,17:01～18:00,0.0621,0.0539,0.0574,
大田 (Ota),2012-05-16,16:01～17:00,0.0637,0.0546,0.0581,
大田 (Ota),2012-05-16,15:01～16:00,0.0620,0.0546,0.0577,
大田 (Ota),2012-05-16,14:01～15:00,0.0603,0.0537,0.0574,
大田 (Ota),2012-05-16,13:01～14:00,0.0625,0.0536,0.0574,
大田 (Ota),2012-05-16,12:01～13:00,0.0603,0.0535,0.0572,
大田 (Ota),2012-05-16,11:01～12:00,0.0603,0.0544,0.0575,
大田 (Ota),2012-05-16,10:01～11:00,0.0612,0.0534,0.0562,
大田 (Ota),2012-05-16,09:01～10:00,0.0629,0.0540,0.0573,
大田 (Ota),2012-05-16,08:01～09:00,0.0608,0.0533,0.0578,
大田 (Ota),2012-05-16,07:01～08:00,0.0622,0.0544,0.0572,
大田 (Ota),2012-05-16,06:01～07:00,0.0609,0.0519,0.0565,
大田 (Ota),2012-05-16,05:01～06:00,0.0612,0.0532,0.0566,
大田 (Ota),2012-05-16,04:01～05:00,0.0594,0.0525,0.0563,
大田 (Ota),2012-05-16,03:01～04:00,0.0596,0.0515,0.0566,
大田 (Ota),2012-05-16,02:01～03:00,0.0607,0.0536,0.0568,
大田 (Ota),2012-05-16,01:01～02:00,0.0602,0.0537,0.0571,
大田 (Ota),2012-05-16,00:01～01:00,0.0617,0.0544,0.0579,
大田 (Ota),2012-05-15,23:01～24:00,0.0609,0.0546,0.0577,
大田 (Ota),2012-05-15,22:01～23:00,0.0625,0.0547,0.0587,
大田 (Ota),2012-05-15,21:01～22:00,0.0679,0.0569,0.0623,
大田 (Ota),2012-05-15,20:01～21:00,0.0677,0.0611,0.0642,
大田 (Ota),2012-05-15,19:01～20:00,0.0657,0.0583,0.0620,
大田 (Ota),2012-05-15,18:01～19:00,0.0645,0.0562,0.0600,
大田 (Ota),2012-05-15,17:01～18:00,0.0638,0.0555,0.0588,
大田 (Ota),2012-05-15,16:01～17:00,0.0619,0.0552,0.0581,
大田 (Ota),2012-05-15,15:01～16:00,0.0650,0.0553,0.0596,
大田 (Ota),2012-05-15,14:01～15:00,0.0649,0.0572,0.0606,
大田 (Ota),2012-05-15,13:01～14:00,0.0645,0.0579,0.0612,
大田 (Ota),2012-05-15,12:01～13:00,0.0685,0.0591,0.0632,
大田 (Ota),2012-05-15,11:01～12:00,0.0677,0.0565,0.0623,
大田 (Ota),2012-05-15,10:01～11:00,0.0648,0.0531,0.0587,
大田 (Ota),2012-05-15,09:01～10:00,0.0618,0.0537,0.0580,
大田 (Ota),2012-05-15,08:01～09:00,0.0640,0.0554,0.0591,
大田 (Ota),2012-05-15,07:01～08:00,0.0651,0.0563,0.0598,
大田 (Ota),2012-05-15,06:01～07:00,0.0643,0.0557,0.0602,
大田 (Ota),2012-05-15,05:01～06:00,0.0662,0.0538,0.0613,
大田 (Ota),2012-05-15,04:01～05:00,0.0623,0.0546,0.0581,
大田 (Ota),2012-05-15,03:01～04:00,0.0603,0.0542,0.0574,
大田 (Ota),2012-05-15,02:01～03:00,0.0616,0.0544,0.0581,
大田 (Ota),2012-05-15,01:01～02:00,0.0609,0.0539,0.0578,
大田 (Ota),2012-05-15,00:01～01:00,0.0615,0.0537,0.0576,
大田 (Ota),2012-05-14,23:01～24:00,0.0623,0.0541,0.0579,
大田 (Ota),2012-05-14,22:01～23:00,0.0619,0.0545,0.0580,
大田 (Ota),2012-05-14,21:01～22:00,0.0623,0.0546,0.0578,
大田 (Ota),2012-05-14,20:01～21:00,0.0611,0.0544,0.0580,
大田 (Ota),2012-05-14,19:01～20:00,0.0626,0.0550,0.0580,
大田 (Ota),2012-05-14,18:01～19:00,0.0608,0.0540,0.0576,
大田 (Ota),2012-05-14,17:01～18:00,0.0608,0.0537,0.0579,
大田 (Ota),2012-05-14,16:01～17:00,0.0618,0.0550,0.0583,
大田 (Ota),2012-05-14,15:01～16:00,0.0604,0.0541,0.0576,
大田 (Ota),2012-05-14,14:01～15:00,0.0614,0.0540,0.0579,
大田 (Ota),2012-05-14,13:01～14:00,0.0633,0.0556,0.0583,
大田 (Ota),2012-05-14,12:01～13:00,0.0755,0.0539,0.0589,
大田 (Ota),2012-05-14,11:01～12:00,0.0667,0.0540,0.0578,
大田 (Ota),2012-05-14,10:01～11:00,0.0614,0.0545,0.0579,
大田 (Ota),2012-05-14,09:01～10:00,0.0626,0.0544,0.0581,
大田 (Ota),2012-05-14,08:01～09:00,0.0622,0.0554,0.0586,
大田 (Ota),2012-05-14,07:01～08:00,0.0626,0.0540,0.0588,
大田 (Ota),2012-05-14,06:01～07:00,0.0619,0.0546,0.0585,
大田 (Ota),2012-05-14,05:01～06:00,0.0615,0.0546,0.0580,
大田 (Ota),2012-05-14,04:01～05:00,0.0621,0.0551,0.0585,
大田 (Ota),2012-05-14,03:01～04:00,0.0601,0.0534,0.0577,
大田 (Ota),2012-05-14,02:01～03:00,0.0625,0.0545,0.0581,
大田 (Ota),2012-05-14,01:01～02:00,0.0619,0.0534,0.0580,
大田 (Ota),2012-05-14,00:01～01:00,0.0616,0.0556,0.0581,
